FW2784 Weather Reports


Display with metric or nautical units.
time (UTC)temp
F
wind
direction
speed
MPH
gust
MPH
rain 1hr
in
rain 24hr
in
rain mn
in
humidity
%
barometer
mb
20260504221000 80 76 4.0 9.0 0.00 0.00 0.00 35 1014.3
20260504220501 80 26 5.0 11.0 0.00 0.00 0.00 36 1014.3
20260504220003 80 73 5.0 12.0 0.00 0.00 0.00 38 1014.4
20260504215502 81 20 4.0 12.0 0.00 0.00 0.00 38 1014.3
20260504215001 81 62 3.0 11.0 0.00 0.00 0.00 37 1014.4
20260504214501 81 24 4.0 11.0 0.00 0.00 0.00 37 1014.5
20260504214001 82 348 4.0 10.0 0.00 0.00 0.00 37 1014.6
20260504213004 82 54 5.0 11.0 0.00 0.00 0.00 36 1014.7
20260504212001 83 50 4.0 9.0 0.00 0.00 0.00 37 1014.6
20260504211502 83 71 4.0 10.0 0.00 0.00 0.00 36 1014.5
20260504211001 83 62 4.0 10.0 0.00 0.00 0.00 36 1014.6
20260504210501 83 333 4.0 11.0 0.00 0.00 0.00 39 1014.5
20260504204501 83 91 4.0 10.0 0.00 0.00 0.00 35 1014.6
20260504204000 83 5 5.0 12.0 0.00 0.00 0.00 36 1014.6
20260504203500 83 347 6.0 12.0 0.00 0.00 0.00 35 1014.7
20260504203002 83 64 5.0 10.0 0.00 0.00 0.00 38 1014.7
20260504202501 83 40 4.0 9.0 0.00 0.00 0.00 37 1014.7
20260504202000 82 85 3.0 9.0 0.00 0.00 0.00 37 1014.7
20260504201001 81 84 3.0 9.0 0.00 0.00 0.00 38 1014.8
20260504200501 81 55 3.0 9.0 0.00 0.00 0.00 40 1014.9
20260504200004 81 360 3.0 9.0 0.00 0.00 0.00 40 1014.9
20260504195502 82 101 3.0 9.0 0.00 0.00 0.00 38 1015.2
20260504195001 82 16 4.0 11.0 0.00 0.00 0.00 38 1015.2
20260504194502 81 19 3.0 11.0 0.00 0.00 0.00 39 1015.3
20260504194001 80 35 2.0 9.0 0.00 0.00 0.00 40 1015.3
20260504193002 80 49 2.0 6.0 0.00 0.00 0.00 39 1015.4
20260504192501 79 48 3.0 9.0 0.00 0.00 0.00 39 1015.5
20260504192001 79 60 4.0 9.0 0.00 0.00 0.00 40 1015.6
20260504191502 79 321 3.0 8.0 0.00 0.00 0.00 41 1015.6
20260504191000 79 38 4.0 9.0 0.00 0.00 0.00 40 1015.5
20260504190003 80 74 3.0 9.0 0.00 0.00 0.00 43 1015.8
20260504185501 80 344 4.0 9.0 0.00 0.00 0.00 39 1016.0
20260504185001 80 39 3.0 9.0 0.00 0.00 0.00 42 1016.1
20260504184501 81 101 3.0 9.0 0.00 0.00 0.00 37 1016.0
20260504184002 81 70 3.0 9.0 0.00 0.00 0.00 42 1016.1
20260504183500 81 17 3.0 9.0 0.00 0.00 0.00 42 1016.2
20260504183001 80 87 2.0 7.0 0.00 0.00 0.00 43 1016.2
20260504182500 79 42 2.0 5.0 0.00 0.00 0.00 45 1016.4
20260504182001 79 166 2.0 8.0 0.00 0.00 0.00 41 1016.4
20260504180003 80 14 3.0 10.0 0.00 0.00 0.00 45 1016.6
20260504175001 79 91 3.0 8.0 0.00 0.00 0.00 43 1016.6
20260504174501 79 221 3.0 8.0 0.00 0.00 0.00 45 1016.7
20260504174001 78 54 3.0 8.0 0.00 0.00 0.00 45 1016.6
20260504173501 78 74 2.0 8.0 0.00 0.00 0.00 47 1016.8
20260504173001 77 42 2.0 6.0 0.00 0.00 0.00 46 1016.8
20260504172500 78 180 4.0 8.0 0.00 0.00 0.00 44 1017.0
20260504172001 78 77 3.0 8.0 0.00 0.00 0.00 45 1017.0
20260504171500 77 67 4.0 6.0 0.00 0.00 0.00 48 1017.1
20260504171001 77 49 4.0 11.0 0.00 0.00 0.00 44 1017.2
20260504151001 71 242 3.0 7.0 0.00 0.00 0.00 51 1017.9
20260504150502 72 109 4.0 9.0 0.00 0.00 0.00 51 1018.0
20260504141000 68 51 3.0 5.0 0.00 0.00 0.00 60 1018.5
20260504140500 68 78 3.0 6.0 0.00 0.00 0.00 60 1018.6
20260504130501 59 51 2.0 4.0 0.00 0.00 0.00 81 1018.6
20260504110501 44 265 0.0 0.0 0.00 0.00 0.00 91 1017.8
20260504100500 45 265 0.0 0.0 0.00 0.00 0.00 91 1017.8
20260504081501 45 265 0.0 0.0 0.00 0.00 0.00 89 1017.7
20260504081000 45 265 0.0 0.0 0.00 0.00 0.00 89 1017.7
20260504080500 46 265 0.0 0.0 0.00 0.00 0.00 90 1017.7
20260504050503 48 265 0.0 0.0 0.00 0.00 0.00 86 1018.8
20260504050005 48 265 0.0 0.0 0.00 0.00 0.00 86 1018.8
20260504045501 49 265 0.0 0.0 0.00 0.00 0.00 86 1018.8
20260504045001 49 265 1.0 1.0 0.00 0.00 0.00 86 1018.9
20260504044502 49 265 1.0 2.0 0.00 0.00 0.00 86 1018.9
20260504044001 49 265 1.0 2.0 0.00 0.00 0.00 86 1018.9
20260504043502 49 265 1.0 2.0 0.00 0.00 0.00 85 1018.9
20260504043001 49 265 0.0 1.0 0.00 0.00 0.00 85 1019.0
20260504042002 49 265 0.0 1.0 0.00 0.00 0.00 85 1019.1
20260504041501 49 265 1.0 1.0 0.00 0.00 0.00 85 1019.1
20260504040501 50 265 1.0 1.0 0.00 0.00 0.00 84 1019.2
20260504040003 50 265 1.0 1.0 0.00 0.00 0.00 84 1019.3
20260504035501 50 265 0.0 2.0 0.00 0.00 0.00 84 1019.3
20260504035001 50 265 0.0 2.0 0.00 0.00 0.00 83 1019.3
20260504034001 50 265 0.0 0.0 0.00 0.00 0.00 83 1019.5
20260504033501 50 265 0.0 0.0 0.00 0.00 0.00 82 1019.6
20260504033001 50 265 0.0 0.0 0.00 0.00 0.00 82 1019.6
20260504032001 51 265 0.0 0.0 0.00 0.00 0.00 81 1019.6
20260504031001 51 265 1.0 1.0 0.00 0.00 0.00 81 1019.6
20260504030006 51 265 1.0 1.0 0.00 0.00 0.00 80 1019.4
20260504025501 52 265 1.0 2.0 0.00 0.00 0.00 80 1019.4
20260504025001 52 265 1.0 2.0 0.00 0.00 0.00 80 1019.3
20260504024502 52 265 1.0 2.0 0.00 0.00 0.00 79 1019.3
20260504024002 52 265 1.0 2.0 0.00 0.00 0.00 79 1019.2
20260504023502 52 265 0.0 2.0 0.00 0.00 0.00 79 1019.2
20260504023002 53 265 0.0 2.0 0.00 0.00 0.00 78 1019.2
20260504022501 53 265 0.0 0.0 0.00 0.00 0.00 78 1019.2
20260504022001 53 265 0.0 1.0 0.00 0.00 0.00 78 1019.1
20260504021501 53 265 1.0 2.0 0.00 0.00 0.00 77 1019.0
20260504021002 53 265 0.0 2.0 0.00 0.00 0.00 76 1019.0
20260504020501 54 265 0.0 0.0 0.00 0.00 0.00 76 1019.1
20260504020004 54 265 0.0 0.0 0.00 0.00 0.00 75 1019.0
20260504015501 54 265 0.0 2.0 0.00 0.00 0.00 75 1019.0
20260504015001 54 265 0.0 2.0 0.00 0.00 0.00 75 1019.0
20260504014501 55 265 1.0 2.0 0.00 0.00 0.00 74 1019.1
20260504014001 55 265 1.0 2.0 0.00 0.00 0.00 73 1018.9
20260504013502 55 265 1.0 2.0 0.00 0.00 0.00 73 1018.8
20260504013004 56 265 1.0 2.0 0.00 0.00 0.00 71 1018.7
20260504012501 56 265 1.0 2.0 0.00 0.00 0.00 70 1018.6
20260504012001 57 265 1.0 2.0 0.00 0.00 0.00 70 1018.8
20260504011001 58 265 1.0 2.0 0.00 0.00 0.00 66 1018.7
20260504010501 58 265 1.0 2.0 0.00 0.00 0.00 64 1018.6
20260504010004 59 265 0.0 1.0 0.00 0.00 0.00 64 1018.4
20260504005500 60 265 1.0 2.0 0.00 0.00 0.00 61 1018.5
20260504005001 60 265 1.0 2.0 0.00 0.00 0.00 60 1018.4
20260504004501 61 265 0.0 2.0 0.00 0.00 0.00 60 1018.3
20260504004002 61 265 0.0 2.0 0.00 0.00 0.00 57 1018.3
20260504003501 62 265 0.0 1.0 0.00 0.00 0.00 56 1018.3
20260504003001 62 265 0.0 2.0 0.00 0.00 0.00 54 1018.2
20260504002501 63 265 0.0 2.0 0.00 0.00 0.00 52 1018.2
20260504001502 64 264 1.0 2.0 0.00 0.00 0.00 53 1018.3
20260504001007 65 264 1.0 2.0 0.00 0.00 0.00 55 1018.2
20260504000501 65 259 1.0 3.0 0.00 0.00 0.00 51 1018.2
20260504000003 66 338 1.0 3.0 0.00 0.00 0.00 48 1018.1
20260503235501 66 118 1.0 3.0 0.00 0.00 0.00 48 1018.2
20260503234501 67 81 1.0 4.0 0.00 0.00 0.00 42 1018.1
20260503234001 67 63 1.0 4.0 0.00 0.00 0.00 43 1018.0
20260503233501 67 199 2.0 5.0 0.00 0.00 0.00 42 1018.0
20260503233001 67 59 2.0 6.0 0.00 0.00 0.00 42 1018.0
20260503232501 68 77 3.0 6.0 0.00 0.00 0.00 43 1018.2
20260503232001 68 83 2.0 5.0 0.00 0.00 0.00 42 1018.2
20260503230502 69 81 2.0 4.0 0.00 0.00 0.00 41 1018.3
20260503230004 69 64 3.0 6.0 0.00 0.00 0.00 39 1018.2
20260503225501 69 161 2.0 5.0 0.00 0.00 0.00 38 1018.3
20260503224501 70 84 2.0 7.0 0.00 0.00 0.00 38 1018.2
20260503224001 70 135 2.0 7.0 0.00 0.00 0.00 37 1018.2
20260503223501 70 119 3.0 7.0 0.00 0.00 0.00 38 1018.2
20260503223002 71 222 3.0 7.0 0.00 0.00 0.00 35 1018.3
20260503222502 71 240 3.0 10.0 0.00 0.00 0.00 38 1018.3
20260503222002 71 205 2.0 10.0 0.00 0.00 0.00 36 1018.4
20260503221500 71 192 2.0 7.0 0.00 0.00 0.00 37 1018.3